Погода в Исменцах

Россия / Республика Марий Эл     55°58′37″N   48°13′08″E
темп.,
°C
ветер,
м/с
пор.,
м/с
влажн.,
%
обл.,
%
осадки,
мм/ч
давл.,
гПа
погр.,
м
17 апреля, сб
сб1700:00+6всв410725 0.0 1026276
03:00+4св410725 0.0 1027246
06:00+3св410695 0.0 1027286
09:00+8всв68505 0.0 1027546
12:00+11всв67373 0.0 1027899
15:00+12всв56401 0.0 1026981
18:00+9св47600 0.0 1025302
21:00+5св410820 0.0 1025247
18 апреля, вс
вс1800:00+4св38851 0.0 1024165
03:00+2св24870 0.0 102471
06:00+3св26821 0.0 1024157
09:00+10всв46552 0.0 1024676
12:00+12всв56455 0.0 10231511
15:00+13всв664661 0.0 10241895
18:00+8св710675 0.0 1025773
21:00+5всв6126063 0.0 1027560
19 апреля, пн
пн1900:00+2всв51259100 0.0 1028482
03:00+1всв61367100 0.0 1029552
06:00+1всв61361100 0.0 1029630
09:00+4в71145100 0.0 10301088
12:00+6в81135100 0.0 10301495
15:00+7в71033100 0.0 10301651
18:00+6в6113880 0.0 1030849
21:00+3в614441 0.0 1031517
20 апреля, вт
вт2000:00+1в513484 0.0 1032419
03:000в512555 0.0 1033316
06:00+1в512560 0.0 1033396
09:00+6вюв69360 0.0 10331061
12:00+8вюв79290 0.0 10321376
15:00+9вюв68280 0.0 10311448
18:00+7в611370 0.0 1030514
21:00+3в4105026 0.0 1030202
21 апреля, ср
ср2100:00+3вюв51551100 0.0 1029408
03:00+2вюв61553100 0.0 1029474
06:00+3юв71652100 0.0 1028641
09:00+6юв91641100 0.0 1026891
12:00+9юв91434100 0.0 10261156
15:00+9ююв81445100 0.1 10251252
18:00+6ююв71566100 0.9 10261005
21:00+5ююв81684100 1.8 1026863